| time (UTC) | temp C | wind direction | speed KPH | gust KPH | rain 1hr cm | rain 24hr cm | rain mn cm | humidity % | barometer mb |
| 20260505091159 | 14 | 238 | 1.6 | 4.8 | 0.00 | 0.00 | 0.00 | 74 | 1014.7 |
| 20260505090659 | 14 | 235 | 1.6 | 4.8 | 0.00 | 0.00 | 0.00 | 74 | 1014.7 |
| 20260505090201 | 14 | 235 | 1.6 | 4.8 | 0.00 | 0.00 | 0.00 | 73 | 1014.5 |
| 20260505090156 | 14 | 232 | 1.6 | 3.2 | 0.00 | 0.00 | 0.00 | 73 | 1014.6 |
| 20260505085156 | 14 | 229 | 3.2 | 4.8 | 0.00 | 0.00 | 0.00 | 72 | 1014.5 |
| 20260505084702 | 15 | 237 | 3.2 | 4.8 | 0.00 | 0.00 | 0.00 | 72 | 1014.4 |
| 20260505084658 | 15 | 231 | 1.6 | 4.8 | 0.00 | 0.00 | 0.00 | 72 | 1014.4 |
| 20260505084315 | 15 | 240 | 3.2 | 6.4 | 0.00 | 0.00 | 0.00 | 71 | 1014.3 |
| 20260505083156 | 15 | 238 | 3.2 | 6.4 | 0.00 | 0.00 | 0.00 | 71 | 1014.4 |
| 20260505082656 | 15 | 229 | 1.6 | 6.4 | 0.00 | 0.00 | 0.00 | 71 | 1014.3 |
| 20260505082201 | 15 | 240 | 3.2 | 8.0 | 0.00 | 0.00 | 0.00 | 70 | 1014.2 |
| 20260505082156 | 15 | 229 | 3.2 | 8.0 | 0.00 | 0.00 | 0.00 | 70 | 1014.2 |
| 20260505081157 | 15 | 240 | 1.6 | 4.8 | 0.00 | 0.00 | 0.00 | 69 | 1014.2 |
| 20260505080703 | 15 | 266 | 3.2 | 6.4 | 0.00 | 0.00 | 0.00 | 68 | 1014.1 |
| 20260505080656 | 15 | 235 | 1.6 | 6.4 | 0.00 | 0.00 | 0.00 | 69 | 1014.1 |
| 20260505075656 | 15 | 234 | 3.2 | 6.4 | 0.00 | 0.00 | 0.00 | 68 | 1014.0 |
| 20260505075157 | 15 | 266 | 3.2 | 6.4 | 0.00 | 0.00 | 0.00 | 67 | 1014.0 |
| 20260505074657 | 15 | 250 | 3.2 | 6.4 | 0.00 | 0.00 | 0.00 | 67 | 1013.9 |
| 20260505074155 | 16 | 232 | 3.2 | 9.7 | 0.00 | 0.00 | 0.00 | 66 | 1013.9 |
| 20260505073655 | 16 | 242 | 3.2 | 9.7 | 0.00 | 0.00 | 0.00 | 66 | 1013.9 |
| 20260505073154 | 16 | 225 | 3.2 | 9.7 | 0.00 | 0.00 | 0.00 | 65 | 1013.9 |
| 20260505072654 | 16 | 221 | 3.2 | 8.0 | 0.00 | 0.00 | 0.00 | 65 | 1013.9 |
| 20260505072200 | 16 | 250 | 4.8 | 9.7 | 0.00 | 0.00 | 0.00 | 64 | 1013.9 |
| 20260505072154 | 16 | 229 | 4.8 | 9.7 | 0.00 | 0.00 | 0.00 | 64 | 1013.9 |
| 20260505071153 | 16 | 263 | 3.2 | 8.0 | 0.00 | 0.00 | 0.00 | 63 | 1013.7 |
| 20260505070658 | 16 | 245 | 3.2 | 8.0 | 0.00 | 0.00 | 0.00 | 61 | 1013.8 |
| 20260505070652 | 16 | 234 | 3.2 | 8.0 | 0.00 | 0.00 | 0.00 | 62 | 1013.8 |
| 20260505065653 | 16 | 243 | 3.2 | 9.7 | 0.00 | 0.00 | 0.00 | 61 | 1013.7 |
| 20260505065157 | 16 | 247 | 4.8 | 8.0 | 0.00 | 0.00 | 0.00 | 60 | 1013.7 |
| 20260505065152 | 16 | 235 | 3.2 | 9.7 | 0.00 | 0.00 | 0.00 | 60 | 1013.8 |
| 20260505064153 | 17 | 231 | 4.8 | 11.3 | 0.00 | 0.00 | 0.00 | 59 | 1013.8 |
| 20260505063650 | 17 | 267 | 4.8 | 11.3 | 0.00 | 0.00 | 0.00 | 59 | 1013.8 |
| 20260505063151 | 17 | 221 | 4.8 | 11.3 | 0.00 | 0.00 | 0.00 | 58 | 1013.7 |
| 20260505062658 | 17 | 226 | 3.2 | 9.7 | 0.00 | 0.00 | 0.00 | 57 | 1013.8 |
| 20260505062651 | 17 | 224 | 3.2 | 9.7 | 0.00 | 0.00 | 0.00 | 58 | 1013.8 |
| 20260505061650 | 17 | 233 | 3.2 | 9.7 | 0.00 | 0.00 | 0.00 | 56 | 1013.8 |
| 20260505061152 | 17 | 245 | 3.2 | 9.7 | 0.00 | 0.00 | 0.00 | 55 | 1013.8 |
| 20260505060650 | 17 | 217 | 3.2 | 9.7 | 0.00 | 0.00 | 0.00 | 55 | 1013.8 |
| 20260505060148 | 17 | 229 | 3.2 | 8.0 | 0.00 | 0.00 | 0.00 | 54 | 1013.7 |
| 20260505055650 | 17 | 233 | 1.6 | 6.4 | 0.00 | 0.00 | 0.00 | 54 | 1013.8 |
| 20260505055146 | 17 | 260 | 1.6 | 6.4 | 0.00 | 0.00 | 0.00 | 53 | 1013.8 |
| 20260505054648 | 17 | 224 | 1.6 | 6.4 | 0.00 | 0.00 | 0.00 | 53 | 1013.8 |
| 20260505054152 | 17 | 221 | 3.2 | 6.4 | 0.00 | 0.00 | 0.00 | 53 | 1013.7 |
| 20260505054146 | 17 | 234 | 3.2 | 6.4 | 0.00 | 0.00 | 0.00 | 53 | 1013.7 |
| 20260505053805 | 18 | 256 | 3.2 | 9.7 | 0.00 | 0.00 | 0.00 | 53 | 1013.6 |
| 20260505053147 | 17 | 225 | 3.2 | 6.4 | 0.00 | 0.00 | 0.00 | 53 | 1013.7 |
| 20260505052647 | 17 | 239 | 3.2 | 9.7 | 0.00 | 0.00 | 0.00 | 53 | 1013.7 |
| 20260505051648 | 18 | 235 | 3.2 | 8.0 | 0.00 | 0.00 | 0.00 | 53 | 1013.6 |
| 20260505051147 | 18 | 245 | 3.2 | 8.0 | 0.00 | 0.00 | 0.00 | 53 | 1013.7 |
| 20260505050647 | 18 | 232 | 4.8 | 9.7 | 0.00 | 0.00 | 0.00 | 53 | 1013.7 |
| 20260505050146 | 17 | 263 | 3.2 | 12.9 | 0.00 | 0.00 | 0.00 | 53 | 1013.8 |
| 20260505041644 | 16 | 221 | 1.6 | 9.7 | 0.00 | 0.00 | 0.00 | 60 | 1013.9 |
| 20260505041143 | 15 | 235 | 1.6 | 6.4 | 0.00 | 0.00 | 0.00 | 64 | 1014.0 |
| 20260505040642 | 15 | 221 | 0.0 | 3.2 | 0.00 | 0.00 | 0.00 | 63 | 1014.0 |
| 20260505040143 | 15 | 225 | 0.0 | 0.0 | 0.00 | 0.00 | 0.00 | 64 | 1014.1 |
| 20260505035643 | 15 | 225 | 0.0 | 0.0 | 0.00 | 0.00 | 0.00 | 63 | 1014.1 |
| 20260505035144 | 15 | 226 | 0.0 | 0.0 | 0.00 | 0.00 | 0.00 | 63 | 1014.1 |
| 20260505034644 | 15 | 224 | 0.0 | 0.0 | 0.00 | 0.00 | 0.00 | 63 | 1014.0 |
| 20260505034141 | 15 | 225 | 0.0 | 0.0 | 0.00 | 0.00 | 0.00 | 63 | 1014.0 |
| 20260505033640 | 15 | 225 | 0.0 | 0.0 | 0.00 | 0.00 | 0.00 | 62 | 1014.1 |
| 20260505033141 | 15 | 225 | 0.0 | 0.0 | 0.00 | 0.00 | 0.00 | 62 | 1014.0 |
| 20260505032640 | 15 | 225 | 0.0 | 0.0 | 0.00 | 0.00 | 0.00 | 64 | 1014.1 |
| 20260505032142 | 15 | 225 | 0.0 | 0.0 | 0.00 | 0.00 | 0.00 | 64 | 1014.1 |
| 20260505031640 | 16 | 225 | 0.0 | 0.0 | 0.00 | 0.00 | 0.00 | 63 | 1014.0 |
| 20260505031143 | 16 | 225 | 0.0 | 0.0 | 0.00 | 0.00 | 0.00 | 61 | 1014.1 |
| 20260505031138 | 16 | 225 | 0.0 | 0.0 | 0.00 | 0.00 | 0.00 | 64 | 1014.0 |
| 20260505030139 | 16 | 225 | 0.0 | 0.0 | 0.00 | 0.00 | 0.00 | 60 | 1014.1 |
| 20260505025754 | 16 | 225 | 0.0 | 3.2 | 0.00 | 0.00 | 0.00 | 58 | 1014.1 |
| 20260505025641 | 16 | 225 | 0.0 | 3.2 | 0.00 | 0.00 | 0.00 | 61 | 1014.1 |
| 20260505025636 | 16 | 225 | 0.0 | 1.6 | 0.00 | 0.00 | 0.00 | 61 | 1014.1 |
| 20260505024134 | 16 | 225 | 0.0 | 3.2 | 0.00 | 0.00 | 0.00 | 57 | 1014.1 |
| 20260505023640 | 16 | 225 | 0.0 | 0.0 | 0.00 | 0.00 | 0.00 | 60 | 1014.0 |
| 20260505023635 | 16 | 225 | 0.0 | 0.0 | 0.00 | 0.00 | 0.00 | 58 | 1014.0 |
| 20260505022634 | 16 | 225 | 0.0 | 0.0 | 0.00 | 0.00 | 0.00 | 58 | 1014.0 |
| 20260505022134 | 16 | 225 | 0.0 | 0.0 | 0.00 | 0.00 | 0.00 | 58 | 1014.0 |
| 20260505021639 | 17 | 225 | 0.0 | 1.6 | 0.00 | 0.00 | 0.00 | 56 | 1013.9 |
| 20260505021635 | 17 | 225 | 0.0 | 0.0 | 0.00 | 0.00 | 0.00 | 57 | 1013.9 |
| 20260505021251 | 17 | 225 | 0.0 | 1.6 | 0.00 | 0.00 | 0.00 | 54 | 1014.0 |
| 20260505020133 | 17 | 225 | 0.0 | 1.6 | 0.00 | 0.00 | 0.00 | 53 | 1013.9 |
| 20260505015632 | 17 | 224 | 0.0 | 1.6 | 0.00 | 0.00 | 0.00 | 53 | 1013.9 |
| 20260505015131 | 17 | 224 | 0.0 | 1.6 | 0.00 | 0.00 | 0.00 | 53 | 1013.8 |
| 20260505014630 | 17 | 224 | 0.0 | 0.0 | 0.00 | 0.00 | 0.00 | 53 | 1013.8 |
| 20260505014131 | 17 | 224 | 0.0 | 0.0 | 0.00 | 0.00 | 0.00 | 51 | 1013.8 |
| 20260505013630 | 18 | 224 | 0.0 | 0.0 | 0.00 | 0.00 | 0.00 | 49 | 1013.7 |
| 20260505013130 | 18 | 224 | 0.0 | 0.0 | 0.00 | 0.00 | 0.00 | 49 | 1013.7 |
| 20260505012630 | 18 | 224 | 0.0 | 1.6 | 0.00 | 0.00 | 0.00 | 49 | 1013.7 |
| 20260505012136 | 18 | 223 | 0.0 | 1.6 | 0.00 | 0.00 | 0.00 | 47 | 1013.5 |
| 20260505012130 | 18 | 223 | 0.0 | 1.6 | 0.00 | 0.00 | 0.00 | 48 | 1013.7 |
| 20260505011746 | 18 | 224 | 0.0 | 1.6 | 0.00 | 0.00 | 0.00 | 47 | 1013.5 |
| 20260505010629 | 18 | 223 | 0.0 | 3.2 | 0.00 | 0.00 | 0.00 | 47 | 1013.4 |
| 20260505010128 | 18 | 224 | 0.0 | 3.2 | 0.00 | 0.00 | 0.00 | 47 | 1013.4 |
| 20260505005626 | 18 | 229 | 0.0 | 1.6 | 0.00 | 0.00 | 0.00 | 49 | 1013.3 |
| 20260505005126 | 18 | 229 | 0.0 | 1.6 | 0.00 | 0.00 | 0.00 | 49 | 1013.2 |
| 20260505004627 | 18 | 229 | 0.0 | 0.0 | 0.00 | 0.00 | 0.00 | 47 | 1013.2 |
| 20260505004131 | 19 | 229 | 0.0 | 0.0 | 0.00 | 0.00 | 0.00 | 46 | 1013.1 |
| 20260505004126 | 18 | 229 | 0.0 | 0.0 | 0.00 | 0.00 | 0.00 | 47 | 1013.1 |
| 20260505003133 | 20 | 229 | 0.0 | 1.6 | 0.00 | 0.00 | 0.00 | 45 | 1013.1 |
| 20260505003126 | 19 | 229 | 0.0 | 0.0 | 0.00 | 0.00 | 0.00 | 46 | 1013.1 |
| 20260505002130 | 20 | 229 | 0.0 | 0.0 | 0.00 | 0.00 | 0.00 | 42 | 1013.1 |
| 20260505002125 | 20 | 229 | 0.0 | 1.6 | 0.00 | 0.00 | 0.00 | 44 | 1013.1 |
| 20260505001124 | 21 | 229 | 0.0 | 0.0 | 0.00 | 0.00 | 0.00 | 41 | 1013.1 |
| 20260505000628 | 21 | 229 | 0.0 | 3.2 | 0.00 | 0.00 | 0.00 | 40 | 1013.0 |
| 20260505000623 | 21 | 229 | 0.0 | 0.0 | 0.00 | 0.00 | 0.00 | 40 | 1013.0 |
| 20260504235622 | 21 | 229 | 1.6 | 3.2 | 0.00 | 0.00 | 0.00 | 39 | 1012.9 |
| 20260504235121 | 22 | 235 | 1.6 | 3.2 | 0.00 | 0.00 | 0.00 | 38 | 1012.9 |
| 20260504234620 | 22 | 232 | 1.6 | 3.2 | 0.00 | 0.00 | 0.00 | 37 | 1012.9 |
| 20260504234120 | 22 | 232 | 1.6 | 4.8 | 0.00 | 0.00 | 0.00 | 37 | 1012.8 |
| 20260504233623 | 22 | 264 | 1.6 | 6.4 | 0.00 | 0.00 | 0.00 | 36 | 1012.7 |
| 20260504233121 | 22 | 221 | 3.2 | 6.4 | 0.00 | 0.00 | 0.00 | 36 | 1012.6 |
| 20260504232618 | 22 | 246 | 1.6 | 6.4 | 0.00 | 0.00 | 0.00 | 36 | 1012.6 |
| 20260504232119 | 22 | 214 | 1.6 | 6.4 | 0.00 | 0.00 | 0.00 | 37 | 1012.6 |
| 20260504231618 | 22 | 237 | 1.6 | 6.4 | 0.00 | 0.00 | 0.00 | 36 | 1012.6 |
| 20260504231119 | 23 | 254 | 1.6 | 3.2 | 0.00 | 0.00 | 0.00 | 37 | 1012.5 |
| 20260504230618 | 23 | 245 | 1.6 | 6.4 | 0.00 | 0.00 | 0.00 | 36 | 1012.5 |
| 20260504230121 | 23 | 232 | 1.6 | 6.4 | 0.00 | 0.00 | 0.00 | 36 | 1012.5 |
| 20260504230116 | 23 | 256 | 1.6 | 4.8 | 0.00 | 0.00 | 0.00 | 37 | 1012.6 |
| 20260504225720 | 23 | 247 | 1.6 | 6.4 | 0.00 | 0.00 | 0.00 | 36 | 1012.5 |
| 20260504224623 | 23 | 207 | 3.2 | 9.7 | 0.00 | 0.00 | 0.00 | 35 | 1012.6 |
| 20260504224615 | 23 | 236 | 1.6 | 4.8 | 0.00 | 0.00 | 0.00 | 35 | 1012.5 |
| 20260504224115 | 23 | 235 | 3.2 | 8.0 | 0.00 | 0.00 | 0.00 | 35 | 1012.5 |
| 20260504223614 | 23 | 256 | 3.2 | 9.7 | 0.00 | 0.00 | 0.00 | 35 | 1012.5 |
| 20260504222612 | 24 | 214 | 1.6 | 6.4 | 0.00 | 0.00 | 0.00 | 35 | 1012.6 |
| 20260504222114 | 24 | 229 | 3.2 | 9.7 | 0.00 | 0.00 | 0.00 | 35 | 1012.6 |
| 20260504221615 | 24 | 236 | 3.2 | 11.3 | 0.00 | 0.00 | 0.00 | 35 | 1012.6 |
| 20260504221610 | 24 | 240 | 3.2 | 9.7 | 0.00 | 0.00 | 0.00 | 33 | 1012.6 |
| 20260504221107 | 24 | 245 | 3.2 | 8.0 | 0.00 | 0.00 | 0.00 | 35 | 1012.6 |
| 20260504220107 | 24 | 235 | 3.2 | 11.3 | 0.00 | 0.00 | 0.00 | 35 | 1012.6 |
| 20260504215604 | 24 | 224 | 3.2 | 9.7 | 0.00 | 0.00 | 0.00 | 36 | 1012.6 |
| 20260504215104 | 24 | 255 | 3.2 | 11.3 | 0.00 | 0.00 | 0.00 | 34 | 1012.6 |
| 20260504214604 | 24 | 246 | 3.2 | 11.3 | 0.00 | 0.00 | 0.00 | 35 | 1012.6 |
| 20260504214105 | 24 | 219 | 3.2 | 11.3 | 0.00 | 0.00 | 0.00 | 35 | 1012.6 |
| 20260504213602 | 24 | 266 | 4.8 | 11.3 | 0.00 | 0.00 | 0.00 | 34 | 1012.7 |
| 20260504213102 | 24 | 253 | 4.8 | 11.3 | 0.00 | 0.00 | 0.00 | 34 | 1012.7 |
| 20260504212607 | 25 | 250 | 1.6 | 6.4 | 0.00 | 0.00 | 0.00 | 36 | 1012.7 |
| 20260504212603 | 25 | 245 | 3.2 | 11.3 | 0.00 | 0.00 | 0.00 | 34 | 1012.7 |
| 20260504211601 | 25 | 259 | 3.2 | 12.9 | 0.00 | 0.00 | 0.00 | 35 | 1012.7 |
| 20260504211101 | 25 | 243 | 3.2 | 12.9 | 0.00 | 0.00 | 0.00 | 34 | 1012.7 |
| 20260504210601 | 25 | 255 | 3.2 | 9.7 | 0.00 | 0.00 | 0.00 | 37 | 1012.7 |
| 20260504210104 | 25 | 232 | 3.2 | 14.5 | 0.00 | 0.00 | 0.00 | 34 | 1012.8 |
| 20260504210100 | 24 | 225 | 3.2 | 14.5 | 0.00 | 0.00 | 0.00 | 35 | 1012.7 |
| 20260504205717 | 25 | 269 | 3.2 | 8.0 | 0.00 | 0.00 | 0.00 | 36 | 1012.9 |
| 20260504205219 | 25 | 229 | 3.2 | 11.3 | 0.00 | 0.00 | 0.00 | 37 | 1013.0 |
| 20260504204600 | 24 | 225 | 3.2 | 8.0 | 0.00 | 0.00 | 0.00 | 38 | 1012.9 |
| 20260504204059 | 25 | 239 | 3.2 | 11.3 | 0.00 | 0.00 | 0.00 | 36 | 1013.0 |
| 20260504203717 | 25 | 243 | 3.2 | 9.7 | 0.00 | 0.00 | 0.00 | 36 | 1013.1 |
| 20260504203215 | 25 | 243 | 3.2 | 9.7 | 0.00 | 0.00 | 0.00 | 36 | 1013.4 |
| 20260504202556 | 25 | 219 | 3.2 | 8.0 | 0.00 | 0.00 | 0.00 | 36 | 1013.3 |
| 20260504202057 | 25 | 197 | 3.2 | 9.7 | 0.00 | 0.00 | 0.00 | 37 | 1013.3 |
| 20260504201054 | 25 | 228 | 3.2 | 9.7 | 0.00 | 0.00 | 0.00 | 37 | 1013.4 |
| 20260504200556 | 25 | 210 | 3.2 | 12.9 | 0.00 | 0.00 | 0.00 | 37 | 1013.5 |
| 20260504200055 | 25 | 208 | 3.2 | 12.9 | 0.00 | 0.00 | 0.00 | 36 | 1013.5 |
| 20260504195552 | 25 | 232 | 3.2 | 9.7 | 0.00 | 0.00 | 0.00 | 37 | 1013.5 |
| 20260504195051 | 25 | 219 | 3.2 | 8.0 | 0.00 | 0.00 | 0.00 | 36 | 1013.6 |
| 20260504194551 | 25 | 242 | 3.2 | 8.0 | 0.00 | 0.00 | 0.00 | 36 | 1013.7 |
| 20260504193551 | 25 | 78 | 1.6 | 9.7 | 0.00 | 0.00 | 0.00 | 36 | 1013.8 |
| 20260504193547 | 25 | 240 | 1.6 | 6.4 | 0.00 | 0.00 | 0.00 | 36 | 1013.8 |
| 20260504192545 | 25 | 224 | 3.2 | 9.7 | 0.00 | 0.00 | 0.00 | 36 | 1013.8 |
| 20260504192044 | 25 | 248 | 1.6 | 6.4 | 0.00 | 0.00 | 0.00 | 35 | 1013.9 |
| 20260504191550 | 25 | 233 | 1.6 | 8.0 | 0.00 | 0.00 | 0.00 | 37 | 1014.1 |
| 20260504191544 | 25 | 186 | 1.6 | 8.0 | 0.00 | 0.00 | 0.00 | 37 | 1014.0 |
| 20260504190545 | 25 | 263 | 3.2 | 8.0 | 0.00 | 0.00 | 0.00 | 38 | 1014.2 |
| 20260504190048 | 25 | 251 | 3.2 | 9.7 | 0.00 | 0.00 | 0.00 | 37 | 1014.2 |
| 20260504190044 | 25 | 229 | 1.6 | 9.7 | 0.00 | 0.00 | 0.00 | 36 | 1014.3 |
| 20260504185043 | 25 | 226 | 1.6 | 8.0 | 0.00 | 0.00 | 0.00 | 38 | 1014.3 |
| 20260504184545 | 25 | 256 | 3.2 | 11.3 | 0.00 | 0.00 | 0.00 | 36 | 1014.4 |
| 20260504184540 | 25 | 99 | 3.2 | 11.3 | 0.00 | 0.00 | 0.00 | 38 | 1014.3 |
| 20260504183541 | 25 | 276 | 3.2 | 9.7 | 0.00 | 0.00 | 0.00 | 37 | 1014.4 |
| 20260504183039 | 25 | 207 | 3.2 | 9.7 | 0.00 | 0.00 | 0.00 | 38 | 1014.5 |
| 20260504182539 | 25 | 228 | 3.2 | 9.7 | 0.00 | 0.00 | 0.00 | 38 | 1014.6 |
| 20260504182039 | 25 | 260 | 3.2 | 9.7 | 0.00 | 0.00 | 0.00 | 37 | 1014.7 |
| 20260504181539 | 25 | 215 | 1.6 | 8.0 | 0.00 | 0.00 | 0.00 | 39 | 1014.6 |
| 20260504181037 | 25 | 221 | 1.6 | 8.0 | 0.00 | 0.00 | 0.00 | 40 | 1014.6 |
| 20260504180536 | 25 | 294 | 1.6 | 8.0 | 0.00 | 0.00 | 0.00 | 37 | 1014.7 |
| 20260504180039 | 25 | 354 | 1.6 | 9.7 | 0.00 | 0.00 | 0.00 | 41 | 1014.7 |
| 20260504175538 | 25 | 215 | 1.6 | 9.7 | 0.00 | 0.00 | 0.00 | 38 | 1014.7 |
| 20260504175035 | 24 | 222 | 1.6 | 4.8 | 0.00 | 0.00 | 0.00 | 39 | 1014.6 |
| 20260504174534 | 24 | 81 | 3.2 | 11.3 | 0.00 | 0.00 | 0.00 | 40 | 1014.7 |
| 20260504174032 | 24 | 214 | 3.2 | 11.3 | 0.00 | 0.00 | 0.00 | 38 | 1014.9 |
| 20260504173533 | 24 | 219 | 1.6 | 8.0 | 0.00 | 0.00 | 0.00 | 38 | 1014.9 |
| 20260504173033 | 24 | 285 | 1.6 | 9.7 | 0.00 | 0.00 | 0.00 | 38 | 1014.9 |
| 20260504172534 | 23 | 231 | 1.6 | 9.7 | 0.00 | 0.00 | 0.00 | 44 | 1015.0 |
| 20260504172032 | 23 | 82 | 1.6 | 9.7 | 0.00 | 0.00 | 0.00 | 39 | 1015.1 |
| 20260504171539 | 23 | 232 | 1.6 | 9.7 | 0.00 | 0.00 | 0.00 | 39 | 1015.4 |
| 20260504171534 | 23 | 213 | 3.2 | 9.7 | 0.00 | 0.00 | 0.00 | 38 | 1015.2 |
| 20260504171152 | 24 | 215 | 1.6 | 6.4 | 0.00 | 0.00 | 0.00 | 38 | 1015.4 |
| 20260504151018 | 21 | 219 | 3.2 | 9.7 | 0.00 | 0.00 | 0.00 | 43 | 1016.8 |
| 20260504150518 | 21 | 221 | 1.6 | 6.4 | 0.00 | 0.00 | 0.00 | 45 | 1016.8 |
| 20260504140509 | 18 | 98 | 0.0 | 3.2 | 0.00 | 0.00 | 0.00 | 61 | 1016.6 |
| 20260504130508 | 8 | 225 | 0.0 | 0.0 | 0.00 | 0.00 | 0.00 | 91 | 1016.5 |
| 20260504110509 | 4 | 225 | 0.0 | 0.0 | 0.00 | 0.00 | 0.00 | 91 | 1016.3 |
| 20260504100515 | 5 | 225 | 0.0 | 1.6 | 0.00 | 0.00 | 0.00 | 91 | 1016.1 |
| 20260504100510 | 5 | 225 | 0.0 | 1.6 | 0.00 | 0.00 | 0.00 | 91 | 1016.1 |